AAL2480 TNCM-KCLT

Flight info

Callsign AAL2480
Flight time N/A
Altitude 32000
Route MODOR2 JUICE B520 LARPP Y318 DONQU Y356 CERDA DCT LETON/M080F320 L451 JAINS/N0472F320 Y436 PITRW STOCR4
Aircraft B38M/M-SDE1FGHILORVWXY/HB1

Departure

Time 2026-05-05 22:07
Airport Princess Juliana International Airport (TNCM)

Arrival

Time N/A
Airport Charlotte Douglas International Airport (KCLT)
Time Latitude Longitude Altitude Speed Heading
2026-05-05 21:31 18.04298 -63.11359 31 ft 2 kts 351°
2026-05-05 21:32 18.04274 -63.11352 31 ft 4 kts 330°
2026-05-05 21:32 18.04254 -63.11334 31 ft 4 kts 311°
2026-05-05 21:32 18.04236 -63.11316 31 ft 4 kts 342°
2026-05-05 21:32 18.04216 -63.11312 31 ft 4 kts 351°
2026-05-05 21:33 18.04201 -63.11309 31 ft 0 kts 351°
2026-05-05 21:35 18.04207 -63.11311 31 ft 4 kts 343°
2026-05-05 21:36 18.04237 -63.11359 31 ft 13 kts 271°
2026-05-05 21:36 18.04218 -63.11474 31 ft 18 kts 246°
2026-05-05 21:36 18.04137 -63.11586 31 ft 20 kts 231°
2026-05-05 21:36 18.04061 -63.11711 30 ft 21 kts 259°
2026-05-05 21:37 18.04041 -63.11851 30 ft 9 kts 262°
2026-05-05 21:37 18.04040 -63.11854 30 ft 0 kts 262°
2026-05-05 22:05 18.04040 -63.11855 30 ft 0 kts 261°
2026-05-05 22:05 18.04038 -63.11864 30 ft 2 kts 256°
2026-05-05 22:05 18.04031 -63.11890 30 ft 6 kts 249°
2026-05-05 22:06 18.04005 -63.11934 30 ft 8 kts 234°
2026-05-05 22:06 18.03957 -63.11955 30 ft 8 kts 151°
2026-05-05 22:06 18.03948 -63.11901 30 ft 10 kts 83°
2026-05-05 22:06 18.03990 -63.11601 30 ft 81 kts 81°
2026-05-05 22:07 18.04111 -63.10760 31 ft 149 kts 80°
2026-05-05 22:07 18.04265 -63.09576 411 ft 171 kts 85°
2026-05-05 22:07 18.04125 -63.08328 1114 ft 181 kts 104°
2026-05-05 22:07 18.03411 -63.07205 1761 ft 194 kts 146°
2026-05-05 22:08 18.02091 -63.06865 2456 ft 210 kts 181°
2026-05-05 22:08 18.00542 -63.07336 2557 ft 254 kts 196°
2026-05-05 22:08 17.99414 -63.07592 3169 ft 245 kts 178°